User: anonymous
Location: Vancouver
(49.2500°N, 123.1330°W)
Time: 02:42:23
(UTC-07:00)
Language:

Vanguard 2 Rocket - Orbit

View from above orbital plane
View from above orbital plane
View from above satellite
View from above satellite

Ground track
Ground track

The orbit data is extracted from the following two-line orbital elements,

1 00012U 59001B   14291.65558919  .00000126  00000-0  74305-4 0  9388
2 00012 032.9014 026.2008 1670647 003.7346 357.4132 11.43409554285574
Epoch (UTC): 18 October 2014 15:44:02
Eccentricity: 0.1670647
inclination: 32.9014°
perigee height: 554 km
apogee height: 3335 km
right ascension of ascending node: 26.2008°
argument of perigee: 3.7346°
revolutions per day: 11.43409554
mean anomaly at epoch: 357.4132°
orbit number at epoch: 28557

The dashed part of the orbit path shows where the satellite is in the earth's shadow,  

DLR